Time,TemperatureF,DewpointF,PressureIn,WindDirection,WindDirectionDegrees,WindSpeedMPH,WindSpeedGustMPH,Humidity,HourlyPrecipIn,Conditions,Clouds,dailyrainin,SolarRadiationWatts/m^2,SoftwareType,DateUTC
2013-06-01 00:01:00,72.6,66.1,30.07,SSE,160,0.0,-999.0,80,0.00,,,0.00,0,Wunderground v.1.15,2013-06-01 04:01:00,
2013-06-01 00:02:00,72.7,66.2,30.07,South,191,0.0,-999.0,80,0.00,,,0.00,0,Wunderground v.1.15,2013-06-01 04:02:00,
2013-06-01 00:04:00,72.8,66.3,30.07,WSW,237,0.0,-999.0,80,0.00,,,0.00,0,Wunderground v.1.15,2013-06-01 04:04:00,
2013-06-01 00:06:00,72.9,66.7,30.07,NNE,14,0.0,-999.0,81,0.00,,,0.00,0,Wunderground v.1.15,2013-06-01 04:06:00,
2013-06-01 00:07:00,73.0,66.8,30.07,NNW,344,1.0,-999.0,81,0.00,,,0.00,0,Wunderground v.1.15,2013-06-01 04:07:00,
2013-06-01 00:12:00,73.4,67.2,30.07,SW,229,1.0,-999.0,81,0.00,,,0.00,0,Wunderground v.1.15,2013-06-01 04:12:00,
2013-06-01 00:18:00,73.7,67.5,30.07,WSW,244,1.0,-999.0,81,0.00,,,0.00,0,Wunderground v.1.15,2013-06-01 04:18:00,
2013-06-01 00:24:00,73.8,67.6,30.07,ENE,63,1.0,-999.0,81,0.00,,,0.00,0,Wunderground v.1.15,2013-06-01 04:24:00,
2013-06-01 00:29:00,73.9,67.7,30.07,WNW,290,0.0,-999.0,81,0.00,,,0.00,0,Wunderground v.1.15,2013-06-01 04:29:00,
2013-06-01 00:34:00,73.9,67.7,30.07,WSW,242,0.0,-999.0,81,0.00,,,0.00,0,Wunderground v.1.15,2013-06-01 04:34:00,
2013-06-01 00:40:00,73.9,67.7,30.07,WSW,244,1.0,-999.0,81,0.00,,,0.00,0,Wunderground v.1.15,2013-06-01 04:40:00,
2013-06-01 00:45:00,73.8,67.6,30.07,ESE,120,1.0,-999.0,81,0.00,,,0.00,0,Wunderground v.1.15,2013-06-01 04:45:00,
2013-06-01 00:50:00,73.8,68.0,30.07,SE,144,1.0,-999.0,82,0.00,,,0.00,0,Wunderground v.1.15,2013-06-01 04:50:00,
2013-06-01 00:56:00,73.7,67.9,30.07,ESE,117,1.0,-999.0,82,0.00,,,0.00,0,Wunderground v.1.15,2013-06-01 04:56:00,
2013-06-01 01:02:00,73.6,67.8,30.07,SW,225,1.0,-999.0,82,0.00,,,0.00,0,Wunderground v.1.15,2013-06-01 05:02:00,
2013-06-01 01:07:00,73.5,67.7,30.06,SSE,148,1.0,-999.0,82,0.00,,,0.00,0,Wunderground v.1.15,2013-06-01 05:07:00,
2013-06-01 01:12:00,73.4,67.9,30.06,WSW,253,0.0,-999.0,83,0.00,,,0.00,0,Wunderground v.1.15,2013-06-01 05:12:00,
2013-06-01 01:18:00,73.3,67.8,30.06,South,188,0.0,-999.0,83,0.00,,,0.00,0,Wunderground v.1.15,2013-06-01 05:18:00,
2013-06-01 01:23:00,73.2,67.7,30.06,NW,309,0.0,-999.0,83,0.00,,,0.00,0,Wunderground v.1.15,2013-06-01 05:23:00,
2013-06-01 01:29:00,73.1,68.0,30.06,West,260,0.0,-999.0,84,0.00,,,0.00,0,Wunderground v.1.15,2013-06-01 05:29:00,
2013-06-01 01:34:00,73.0,67.9,30.06,SSW,198,0.0,-999.0,84,0.00,,,0.00,0,Wunderground v.1.15,2013-06-01 05:34:00,
2013-06-01 01:39:00,72.9,67.8,30.06,NE,56,0.0,-999.0,84,0.00,,,0.00,0,Wunderground v.1.15,2013-06-01 05:39:00,
2013-06-01 01:45:00,72.8,67.7,30.06,WSW,241,0.0,-999.0,84,0.00,,,0.00,0,Wunderground v.1.15,2013-06-01 05:45:00,
2013-06-01 01:50:00,72.7,67.6,30.06,SW,234,1.0,-999.0,84,0.00,,,0.00,0,Wunderground v.1.15,2013-06-01 05:50:00,
2013-06-01 01:55:00,72.6,67.8,30.07,West,265,1.0,-999.0,85,0.00,,,0.00,0,Wunderground v.1.15,2013-06-01 05:55:00,
2013-06-01 02:00:00,72.5,67.7,30.07,WNW,300,1.0,-999.0,85,0.00,,,0.00,0,Wunderground v.1.15,2013-06-01 06:00:00,
2013-06-01 02:05:00,72.5,67.7,30.07,West,273,0.0,-999.0,85,0.00,,,0.00,0,Wunderground v.1.15,2013-06-01 06:05:00,
2013-06-01 02:11:00,72.4,67.6,30.07,SE,136,0.0,-999.0,85,0.00,,,0.00,0,Wunderground v.1.15,2013-06-01 06:11:00,
2013-06-01 02:16:00,72.3,67.5,30.06,SW,225,0.0,-999.0,85,0.00,,,0.00,0,Wunderground v.1.15,2013-06-01 06:16:00,
2013-06-01 02:21:00,72.2,67.4,30.06,West,261,1.0,-999.0,85,0.00,,,0.00,0,Wunderground v.1.15,2013-06-01 06:21:00,
2013-06-01 02:26:00,72.1,67.7,30.07,WSW,256,1.0,-999.0,86,0.00,,,0.00,0,Wunderground v.1.15,2013-06-01 06:26:00,
2013-06-01 02:31:00,72.1,67.7,30.07,WSW,256,1.0,-999.0,86,0.00,,,0.00,0,Wunderground v.1.15,2013-06-01 06:31:00,
2013-06-01 02:36:00,72.0,67.6,30.07,WSW,256,1.0,-999.0,86,0.00,,,0.00,0,Wunderground v.1.15,2013-06-01 06:36:00,
2013-06-01 02:42:00,71.9,67.5,30.07,West,274,0.0,-999.0,86,0.00,,,0.00,0,Wunderground v.1.15,2013-06-01 06:42:00,
2013-06-01 02:47:00,71.8,67.4,30.06,WSW,242,0.0,-999.0,86,0.00,,,0.00,0,Wunderground v.1.15,2013-06-01 06:47:00,
2013-06-01 02:52:00,71.7,67.3,30.07,WSW,239,0.0,-999.0,86,0.00,,,0.00,0,Wunderground v.1.15,2013-06-01 06:52:00,
2013-06-01 02:57:00,71.6,67.2,30.07,ESE,113,0.0,-999.0,86,0.00,,,0.00,0,Wunderground v.1.15,2013-06-01 06:57:00,
2013-06-01 03:02:00,71.5,67.1,30.07,WSW,252,1.0,-999.0,86,0.00,,,0.00,0,Wunderground v.1.15,2013-06-01 07:02:00,
2013-06-01 03:07:00,71.4,67.3,30.07,WSW,257,1.0,-999.0,87,0.00,,,0.00,0,Wunderground v.1.15,2013-06-01 07:07:00,
2013-06-01 03:12:00,71.3,67.2,30.07,West,260,0.0,-999.0,87,0.00,,,0.00,0,Wunderground v.1.15,2013-06-01 07:12:00,
2013-06-01 03:18:00,71.3,67.2,30.07,West,275,0.0,-999.0,87,0.00,,,0.00,0,Wunderground v.1.15,2013-06-01 07:18:00,
2013-06-01 03:23:00,71.3,67.2,30.07,West,275,0.0,-999.0,87,0.00,,,0.00,0,Wunderground v.1.15,2013-06-01 07:23:00,
2013-06-01 03:28:00,71.2,67.1,30.07,West,275,0.0,-999.0,87,0.00,,,0.00,0,Wunderground v.1.15,2013-06-01 07:28:00,
2013-06-01 03:33:00,71.1,67.0,30.07,West,275,0.0,-999.0,87,0.00,,,0.00,0,Wunderground v.1.15,2013-06-01 07:33:00,
2013-06-01 03:38:00,71.0,67.3,30.07,West,275,0.0,-999.0,88,0.00,,,0.00,0,Wunderground v.1.15,2013-06-01 07:38:00,
2013-06-01 03:43:00,70.8,67.1,30.07,West,275,0.0,-999.0,88,0.00,,,0.00,0,Wunderground v.1.15,2013-06-01 07:43:00,
2013-06-01 03:49:00,70.8,67.1,30.07,West,275,0.0,-999.0,88,0.00,,,0.00,0,Wunderground v.1.15,2013-06-01 07:49:00,
2013-06-01 03:54:00,70.7,67.0,30.07,West,271,0.0,-999.0,88,0.00,,,0.00,0,Wunderground v.1.15,2013-06-01 07:54:00,
2013-06-01 03:59:00,70.6,66.9,30.07,West,269,1.0,-999.0,88,0.00,,,0.00,0,Wunderground v.1.15,2013-06-01 07:59:00,
2013-06-01 04:04:00,70.5,67.1,30.07,West,269,0.0,-999.0,89,0.00,,,0.00,0,Wunderground v.1.15,2013-06-01 08:04:00,
2013-06-01 04:09:00,70.4,67.0,30.07,West,269,0.0,-999.0,89,0.00,,,0.00,0,Wunderground v.1.15,2013-06-01 08:09:00,
2013-06-01 04:14:00,70.4,67.0,30.07,West,269,0.0,-999.0,89,0.00,,,0.00,0,Wunderground v.1.15,2013-06-01 08:14:00,
2013-06-01 04:19:00,70.3,66.9,30.07,West,269,0.0,-999.0,89,0.00,,,0.00,0,Wunderground v.1.15,2013-06-01 08:19:00,
2013-06-01 04:25:00,70.2,66.8,30.07,West,269,0.0,-999.0,89,0.00,,,0.00,0,Wunderground v.1.15,2013-06-01 08:25:00,
2013-06-01 04:30:00,70.1,66.7,30.07,West,269,0.0,-999.0,89,0.00,,,0.00,0,Wunderground v.1.15,2013-06-01 08:30:00,
2013-06-01 04:35:00,70.1,66.7,30.07,West,264,0.0,-999.0,89,0.00,,,0.00,0,Wunderground v.1.15,2013-06-01 08:35:00,
2013-06-01 04:40:00,70.1,66.7,30.07,West,264,0.0,-999.0,89,0.00,,,0.00,0,Wunderground v.1.15,2013-06-01 08:40:00,
2013-06-01 04:45:00,70.1,66.7,30.07,West,264,0.0,-999.0,89,0.00,,,0.00,0,Wunderground v.1.15,2013-06-01 08:45:00,
2013-06-01 04:51:00,70.0,66.6,30.07,West,264,0.0,-999.0,89,0.00,,,0.00,0,Wunderground v.1.15,2013-06-01 08:51:00,
2013-06-01 04:56:00,70.0,66.9,30.07,West,264,0.0,-999.0,90,0.00,,,0.00,0,Wunderground v.1.15,2013-06-01 08:56:00,
2013-06-01 05:01:00,70.0,66.9,30.07,West,281,1.0,-999.0,90,0.00,,,0.00,0,Wunderground v.1.15,2013-06-01 09:01:00,
2013-06-01 05:07:00,70.0,66.9,30.07,West,281,1.0,-999.0,90,0.00,,,0.00,0,Wunderground v.1.15,2013-06-01 09:07:00,
2013-06-01 05:12:00,70.0,66.9,30.07,West,281,0.0,-999.0,90,0.00,,,0.00,0,Wunderground v.1.15,2013-06-01 09:12:00,
2013-06-01 05:17:00,70.0,66.6,30.07,WSW,254,0.0,-999.0,89,0.00,,,0.00,0,Wunderground v.1.15,2013-06-01 09:17:00,
2013-06-01 05:22:00,70.0,66.9,30.07,WSW,252,0.0,-999.0,90,0.00,,,0.00,0,Wunderground v.1.15,2013-06-01 09:22:00,
2013-06-01 05:28:00,69.9,66.8,30.08,West,259,1.0,-999.0,90,0.00,,,0.00,0,Wunderground v.1.15,2013-06-01 09:28:00,
2013-06-01 05:34:00,69.9,66.8,30.08,West,259,0.0,-999.0,90,0.00,,,0.00,0,Wunderground v.1.15,2013-06-01 09:34:00,
2013-06-01 05:39:00,69.8,66.7,30.08,West,259,0.0,-999.0,90,0.00,,,0.00,0,Wunderground v.1.15,2013-06-01 09:39:00,
2013-06-01 05:44:00,69.7,66.6,30.08,WSW,257,0.0,-999.0,90,0.00,,,0.00,0,Wunderground v.1.15,2013-06-01 09:44:00,
2013-06-01 05:50:00,69.7,66.6,30.08,WSW,257,0.0,-999.0,90,0.00,,,0.00,0,Wunderground v.1.15,2013-06-01 09:50:00,
2013-06-01 05:56:00,69.6,66.5,30.08,WSW,257,0.0,-999.0,90,0.00,,,0.00,0,Wunderground v.1.15,2013-06-01 09:56:00,
2013-06-01 06:01:00,69.5,66.4,30.08,WSW,257,0.0,-999.0,90,0.00,,,0.00,0,Wunderground v.1.15,2013-06-01 10:01:00,
2013-06-01 06:06:00,69.5,66.4,30.08,WSW,254,0.0,-999.0,90,0.00,,,0.00,0,Wunderground v.1.15,2013-06-01 10:06:00,
2013-06-01 06:12:00,69.5,66.4,30.08,WSW,254,0.0,-999.0,90,0.00,,,0.00,7,Wunderground v.1.15,2013-06-01 10:12:00,
2013-06-01 06:18:00,69.4,66.3,30.08,WSW,254,0.0,-999.0,90,0.00,,,0.00,9,Wunderground v.1.15,2013-06-01 10:18:00,
2013-06-01 06:23:00,69.4,66.3,30.08,WSW,250,0.0,-999.0,90,0.00,,,0.00,12,Wunderground v.1.15,2013-06-01 10:23:00,
2013-06-01 06:28:00,69.4,66.3,30.08,WSW,250,0.0,-999.0,90,0.00,,,0.00,14,Wunderground v.1.15,2013-06-01 10:28:00,
2013-06-01 06:34:00,69.4,66.3,30.08,WSW,248,0.0,-999.0,90,0.00,,,0.00,18,Wunderground v.1.15,2013-06-01 10:34:00,
2013-06-01 06:40:00,69.4,66.3,30.08,WSW,248,0.0,-999.0,90,0.00,,,0.00,19,Wunderground v.1.15,2013-06-01 10:40:00,
2013-06-01 06:45:00,69.4,66.3,30.08,WSW,244,0.0,-999.0,90,0.00,,,0.00,21,Wunderground v.1.15,2013-06-01 10:45:00,
2013-06-01 06:50:00,69.4,66.3,30.08,WSW,244,0.0,-999.0,90,0.00,,,0.00,25,Wunderground v.1.15,2013-06-01 10:50:00,
2013-06-01 06:55:00,69.4,66.3,30.08,West,261,0.0,-999.0,90,0.00,,,0.00,26,Wunderground v.1.15,2013-06-01 10:55:00,
2013-06-01 07:00:00,69.5,66.4,30.08,West,265,1.0,-999.0,90,0.00,,,0.00,28,Wunderground v.1.15,2013-06-01 11:00:00,
2013-06-01 07:05:00,69.5,66.4,30.08,West,265,1.0,-999.0,90,0.00,,,0.00,30,Wunderground v.1.15,2013-06-01 11:05:00,
2013-06-01 07:10:00,69.6,66.5,30.07,ESE,102,0.0,-999.0,90,0.00,,,0.00,32,Wunderground v.1.15,2013-06-01 11:10:00,
2013-06-01 07:16:00,69.6,66.5,30.07,WSW,251,0.0,-999.0,90,0.00,,,0.00,33,Wunderground v.1.15,2013-06-01 11:16:00,
2013-06-01 07:21:00,69.8,66.7,30.08,WSW,248,1.0,-999.0,90,0.00,,,0.00,32,Wunderground v.1.15,2013-06-01 11:21:00,
2013-06-01 07:27:00,69.9,66.8,30.07,WNW,288,1.0,-999.0,90,0.00,,,0.00,35,Wunderground v.1.15,2013-06-01 11:27:00,
2013-06-01 07:32:00,69.9,66.8,30.07,West,261,1.0,-999.0,90,0.00,,,0.00,39,Wunderground v.1.15,2013-06-01 11:32:00,
2013-06-01 07:37:00,70.1,67.0,30.07,WNW,295,1.0,-999.0,90,0.00,,,0.00,39,Wunderground v.1.15,2013-06-01 11:37:00,
2013-06-01 07:43:00,70.3,66.9,30.07,SW,236,1.0,-999.0,89,0.00,,,0.00,40,Wunderground v.1.15,2013-06-01 11:43:00,
2013-06-01 07:48:00,70.4,67.3,30.08,West,272,1.0,-999.0,90,0.00,,,0.00,44,Wunderground v.1.15,2013-06-01 11:48:00,
2013-06-01 07:54:00,70.6,67.2,30.08,WSW,248,1.0,-999.0,89,0.00,,,0.00,47,Wunderground v.1.15,2013-06-01 11:54:00,
2013-06-01 07:59:00,70.9,67.2,30.08,West,270,1.0,-999.0,88,0.00,,,0.00,47,Wunderground v.1.15,2013-06-01 11:59:00,
2013-06-01 08:04:00,71.1,67.4,30.07,West,264,2.0,-999.0,88,0.00,,,0.00,51,Wunderground v.1.15,2013-06-01 12:04:00,
2013-06-01 08:09:00,71.3,67.2,30.08,SW,216,1.0,-999.0,87,0.00,,,0.00,53,Wunderground v.1.15,2013-06-01 12:09:00,
2013-06-01 08:14:00,71.6,67.2,30.07,SSW,213,1.0,-999.0,86,0.00,,,0.00,81,Wunderground v.1.15,2013-06-01 12:14:00,
2013-06-01 08:19:00,71.9,67.1,30.07,SW,232,1.0,-999.0,85,0.00,,,0.00,56,Wunderground v.1.15,2013-06-01 12:19:00,
2013-06-01 08:25:00,72.2,67.1,30.07,WSW,242,1.0,-999.0,84,0.00,,,0.00,295,Wunderground v.1.15,2013-06-01 12:25:00,
2013-06-01 08:30:00,72.6,67.1,30.07,WSW,247,1.0,-999.0,83,0.00,,,0.00,56,Wunderground v.1.15,2013-06-01 12:30:00,
2013-06-01 08:35:00,73.1,67.6,30.07,NW,306,1.0,-999.0,83,0.00,,,0.00,56,Wunderground v.1.15,2013-06-01 12:35:00,
2013-06-01 08:40:00,73.4,67.2,30.07,SW,221,1.0,-999.0,81,0.00,,,0.00,403,Wunderground v.1.15,2013-06-01 12:40:00,
2013-06-01 08:45:00,73.7,67.5,30.07,South,190,1.0,-999.0,81,0.00,,,0.00,441,Wunderground v.1.15,2013-06-01 12:45:00,
2013-06-01 08:51:00,74.1,67.5,30.07,WSW,244,1.0,-999.0,80,0.00,,,0.00,448,Wunderground v.1.15,2013-06-01 12:51:00,
2013-06-01 08:56:00,74.4,67.5,30.07,WSW,255,1.0,-999.0,79,0.00,,,0.00,478,Wunderground v.1.15,2013-06-01 12:56:00,
2013-06-01 09:01:00,74.8,67.5,30.07,SSW,210,2.0,-999.0,78,0.00,,,0.00,497,Wunderground v.1.15,2013-06-01 13:01:00,
2013-06-01 09:06:00,75.1,67.4,30.07,WSW,242,2.0,-999.0,77,0.00,,,0.00,513,Wunderground v.1.15,2013-06-01 13:06:00,
2013-06-01 09:11:00,75.5,67.8,30.07,NW,321,1.0,-999.0,77,0.00,,,0.00,531,Wunderground v.1.15,2013-06-01 13:11:00,
2013-06-01 09:17:00,75.8,67.7,30.07,West,277,0.0,-999.0,76,0.00,,,0.00,552,Wunderground v.1.15,2013-06-01 13:17:00,
2013-06-01 09:22:00,76.2,67.7,30.07,West,281,0.0,-999.0,75,0.00,,,0.00,568,Wunderground v.1.15,2013-06-01 13:22:00,
2013-06-01 09:27:00,76.4,67.5,30.07,SW,235,2.0,-999.0,74,0.00,,,0.00,582,Wunderground v.1.15,2013-06-01 13:27:00,
2013-06-01 09:32:00,76.6,67.3,30.07,SW,236,2.0,-999.0,73,0.00,,,0.00,598,Wunderground v.1.15,2013-06-01 13:32:00,
2013-06-01 09:38:00,77.0,67.7,30.07,West,264,1.0,-999.0,73,0.00,,,0.00,619,Wunderground v.1.15,2013-06-01 13:38:00,
2013-06-01 09:43:00,77.5,68.2,30.07,SW,236,0.0,-999.0,73,0.00,,,0.00,629,Wunderground v.1.15,2013-06-01 13:43:00,
2013-06-01 09:48:00,78.1,68.3,30.07,WNW,286,0.0,-999.0,72,0.00,,,0.00,647,Wunderground v.1.15,2013-06-01 13:48:00,
2013-06-01 09:53:00,78.4,67.0,30.07,NNW,344,1.0,-999.0,68,0.00,,,0.00,666,Wunderground v.1.15,2013-06-01 13:53:00,
2013-06-01 09:59:00,78.4,67.0,30.07,West,277,2.0,-999.0,68,0.00,,,0.00,680,Wunderground v.1.15,2013-06-01 13:59:00,
2013-06-01 10:04:00,78.5,67.1,30.07,West,277,2.0,-999.0,68,0.00,,,0.00,691,Wunderground v.1.15,2013-06-01 14:04:00,
2013-06-01 10:09:00,78.6,67.6,30.07,West,259,2.0,-999.0,69,0.00,,,0.00,708,Wunderground v.1.15,2013-06-01 14:09:00,
2013-06-01 10:14:00,79.1,67.2,30.06,WNW,294,2.0,-999.0,67,0.00,,,0.00,722,Wunderground v.1.15,2013-06-01 14:14:00,
2013-06-01 10:20:00,79.9,67.5,30.06,SW,232,1.0,-999.0,66,0.00,,,0.00,735,Wunderground v.1.15,2013-06-01 14:20:00,
2013-06-01 10:25:00,79.6,66.8,30.06,WNW,297,2.0,-999.0,65,0.00,,,0.00,752,Wunderground v.1.15,2013-06-01 14:25:00,
2013-06-01 10:30:00,79.8,67.4,30.06,ESE,116,2.0,-999.0,66,0.00,,,0.00,758,Wunderground v.1.15,2013-06-01 14:30:00,
2013-06-01 10:35:00,80.4,68.0,30.06,SW,223,1.0,-999.0,66,0.00,,,0.00,773,Wunderground v.1.15,2013-06-01 14:35:00,
2013-06-01 10:41:00,80.7,67.4,30.06,WSW,244,1.0,-999.0,64,0.00,,,0.00,789,Wunderground v.1.15,2013-06-01 14:41:00,
2013-06-01 10:46:00,80.6,66.8,30.06,WSW,257,2.0,-999.0,63,0.00,,,0.00,800,Wunderground v.1.15,2013-06-01 14:46:00,
2013-06-01 10:51:00,81.3,66.6,30.06,WNW,296,2.0,-999.0,61,0.00,,,0.00,810,Wunderground v.1.15,2013-06-01 14:51:00,
2013-06-01 10:57:00,81.1,66.8,30.06,SW,225,2.0,-999.0,62,0.00,,,0.00,828,Wunderground v.1.15,2013-06-01 14:57:00,
2013-06-01 11:02:00,80.9,65.7,30.06,WSW,238,3.0,-999.0,60,0.00,,,0.00,831,Wunderground v.1.15,2013-06-01 15:02:00,
2013-06-01 11:08:00,81.0,65.8,30.06,West,265,4.0,-999.0,60,0.00,,,0.00,842,Wunderground v.1.15,2013-06-01 15:08:00,
2013-06-01 11:13:00,81.4,66.7,30.06,WSW,256,3.0,-999.0,61,0.00,,,0.00,856,Wunderground v.1.15,2013-06-01 15:13:00,
2013-06-01 11:19:00,82.1,66.8,30.06,WNW,284,2.0,-999.0,60,0.00,,,0.00,865,Wunderground v.1.15,2013-06-01 15:19:00,
2013-06-01 11:24:00,81.8,66.1,30.06,WNW,301,2.0,-999.0,59,0.00,,,0.00,872,Wunderground v.1.15,2013-06-01 15:24:00,
2013-06-01 11:29:00,81.6,65.9,30.06,WSW,254,3.0,-999.0,59,0.00,,,0.00,882,Wunderground v.1.15,2013-06-01 15:29:00,
2013-06-01 11:34:00,82.1,66.8,30.06,WNW,285,3.0,-999.0,60,0.00,,,0.00,889,Wunderground v.1.15,2013-06-01 15:34:00,
2013-06-01 11:39:00,83.6,67.8,30.06,WSW,256,2.0,-999.0,59,0.00,,,0.00,902,Wunderground v.1.15,2013-06-01 15:39:00,
2013-06-01 11:44:00,83.2,66.9,30.06,WNW,300,3.0,-999.0,58,0.00,,,0.00,902,Wunderground v.1.15,2013-06-01 15:44:00,
2013-06-01 11:49:00,83.0,67.2,30.06,WSW,240,3.0,-999.0,59,0.00,,,0.00,904,Wunderground v.1.15,2013-06-01 15:49:00,
2013-06-01 11:55:00,82.9,66.1,30.06,WSW,244,3.0,-999.0,57,0.00,,,0.00,923,Wunderground v.1.15,2013-06-01 15:55:00,
2013-06-01 12:00:00,83.4,66.6,30.06,SW,232,3.0,-999.0,57,0.00,,,0.00,932,Wunderground v.1.15,2013-06-01 16:00:00,
2013-06-01 12:05:00,83.4,67.6,30.06,SW,224,2.0,-999.0,59,0.00,,,0.00,940,Wunderground v.1.15,2013-06-01 16:05:00,
2013-06-01 12:11:00,83.5,66.7,30.05,West,262,2.0,-999.0,57,0.00,,,0.00,947,Wunderground v.1.15,2013-06-01 16:11:00,
2013-06-01 12:16:00,83.9,66.5,30.05,SSW,204,2.0,-999.0,56,0.00,,,0.00,951,Wunderground v.1.15,2013-06-01 16:16:00,
2013-06-01 12:21:00,84.6,67.2,30.05,WSW,239,1.0,-999.0,56,0.00,,,0.00,956,Wunderground v.1.15,2013-06-01 16:21:00,
2013-06-01 12:26:00,85.0,67.5,30.05,WNW,282,1.0,-999.0,56,0.00,,,0.00,967,Wunderground v.1.15,2013-06-01 16:26:00,
2013-06-01 12:31:00,85.2,67.2,30.05,SW,231,2.0,-999.0,55,0.00,,,0.00,905,Wunderground v.1.15,2013-06-01 16:31:00,
2013-06-01 12:37:00,85.2,66.7,30.05,South,185,2.0,-999.0,54,0.00,,,0.00,970,Wunderground v.1.15,2013-06-01 16:37:00,
2013-06-01 12:42:00,85.5,67.5,30.05,SW,221,1.0,-999.0,55,0.00,,,0.00,979,Wunderground v.1.15,2013-06-01 16:42:00,
2013-06-01 12:47:00,85.4,67.4,30.04,West,273,1.0,-999.0,55,0.00,,,0.00,983,Wunderground v.1.15,2013-06-01 16:47:00,
2013-06-01 12:52:00,85.8,67.2,30.04,WSW,251,2.0,-999.0,54,0.00,,,0.00,983,Wunderground v.1.15,2013-06-01 16:52:00,
2013-06-01 12:58:00,85.9,66.2,30.04,SSW,198,1.0,-999.0,52,0.00,,,0.00,965,Wunderground v.1.15,2013-06-01 16:58:00,
2013-06-01 13:03:00,86.2,67.1,30.04,SSE,152,2.0,-999.0,53,0.00,,,0.00,944,Wunderground v.1.15,2013-06-01 17:03:00,
2013-06-01 13:08:00,86.3,67.2,30.04,South,179,2.0,-999.0,53,0.00,,,0.00,974,Wunderground v.1.15,2013-06-01 17:08:00,
2013-06-01 13:13:00,87.1,68.4,30.04,North,5,1.0,-999.0,54,0.00,,,0.00,979,Wunderground v.1.15,2013-06-01 17:13:00,
2013-06-01 13:18:00,86.8,66.5,30.04,WSW,244,2.0,-999.0,51,0.00,,,0.00,981,Wunderground v.1.15,2013-06-01 17:18:00,
2013-06-01 13:24:00,86.2,67.1,30.04,WNW,284,4.0,-999.0,53,0.00,,,0.00,976,Wunderground v.1.15,2013-06-01 17:24:00,
2013-06-01 13:29:00,86.2,67.1,30.03,SSE,164,3.0,-999.0,53,0.00,,,0.00,979,Wunderground v.1.15,2013-06-01 17:29:00,
2013-06-01 13:34:00,86.6,66.3,30.03,SW,236,3.0,-999.0,51,0.00,,,0.00,970,Wunderground v.1.15,2013-06-01 17:34:00,
2013-06-01 13:39:00,86.7,66.4,30.03,West,274,4.0,-999.0,51,0.00,,,0.00,969,Wunderground v.1.15,2013-06-01 17:39:00,
2013-06-01 13:45:00,86.8,67.1,30.02,West,274,3.0,-999.0,52,0.00,,,0.00,969,Wunderground v.1.15,2013-06-01 17:45:00,
2013-06-01 13:50:00,87.1,67.3,30.02,WNW,303,3.0,-999.0,52,0.00,,,0.00,969,Wunderground v.1.15,2013-06-01 17:50:00,
2013-06-01 13:55:00,86.7,67.0,30.02,SW,236,4.0,-999.0,52,0.00,,,0.00,963,Wunderground v.1.15,2013-06-01 17:55:00,
2013-06-01 14:00:00,87.2,67.4,30.02,SSE,156,2.0,-999.0,52,0.00,,,0.00,962,Wunderground v.1.15,2013-06-01 18:00:00,
2013-06-01 14:05:00,87.3,67.0,30.02,WNW,296,2.0,-999.0,51,0.00,,,0.00,954,Wunderground v.1.15,2013-06-01 18:05:00,
2013-06-01 14:10:00,87.1,67.9,30.02,West,264,2.0,-999.0,53,0.00,,,0.00,949,Wunderground v.1.15,2013-06-01 18:10:00,
2013-06-01 14:16:00,86.9,67.7,30.01,West,262,3.0,-999.0,53,0.00,,,0.00,940,Wunderground v.1.15,2013-06-01 18:16:00,
2013-06-01 14:21:00,87.4,68.2,30.01,WSW,258,2.0,-999.0,53,0.00,,,0.00,937,Wunderground v.1.15,2013-06-01 18:21:00,
2013-06-01 14:26:00,87.7,67.3,30.01,West,259,2.0,-999.0,51,0.00,,,0.00,935,Wunderground v.1.15,2013-06-01 18:26:00,
2013-06-01 14:31:00,87.9,68.6,30.01,WNW,284,2.0,-999.0,53,0.00,,,0.00,928,Wunderground v.1.15,2013-06-01 18:31:00,
2013-06-01 14:37:00,88.1,67.7,30.01,SW,236,1.0,-999.0,51,0.00,,,0.00,918,Wunderground v.1.15,2013-06-01 18:37:00,
2013-06-01 14:42:00,88.1,66.5,30.01,East,81,1.0,-999.0,49,0.00,,,0.00,918,Wunderground v.1.15,2013-06-01 18:42:00,
2013-06-01 14:47:00,88.2,67.8,30.01,West,274,1.0,-999.0,51,0.00,,,0.00,918,Wunderground v.1.15,2013-06-01 18:47:00,
2013-06-01 14:52:00,88.1,65.3,30.01,WSW,248,2.0,-999.0,47,0.00,,,0.00,905,Wunderground v.1.15,2013-06-01 18:52:00,
2013-06-01 14:57:00,87.5,66.0,30.01,West,271,3.0,-999.0,49,0.00,,,0.00,891,Wunderground v.1.15,2013-06-01 18:57:00,
2013-06-01 15:02:00,87.6,66.7,30.00,WSW,238,2.0,-999.0,50,0.00,,,0.00,889,Wunderground v.1.15,2013-06-01 19:02:00,
2013-06-01 15:08:00,87.8,65.7,30.00,SW,235,2.0,-999.0,48,0.00,,,0.00,881,Wunderground v.1.15,2013-06-01 19:08:00,
2013-06-01 15:13:00,87.9,66.4,30.00,WNW,296,2.0,-999.0,49,0.00,,,0.00,867,Wunderground v.1.15,2013-06-01 19:13:00,
2013-06-01 15:18:00,88.0,67.6,30.00,SSE,164,1.0,-999.0,51,0.00,,,0.00,865,Wunderground v.1.15,2013-06-01 19:18:00,
2013-06-01 15:23:00,88.3,68.4,30.00,WNW,288,1.0,-999.0,52,0.00,,,0.00,854,Wunderground v.1.15,2013-06-01 19:23:00,
2013-06-01 15:29:00,88.6,68.7,30.00,West,275,2.0,-999.0,52,0.00,,,0.00,863,Wunderground v.1.15,2013-06-01 19:29:00,
2013-06-01 15:34:00,88.0,67.0,30.00,WNW,288,2.0,-999.0,50,0.00,,,0.00,828,Wunderground v.1.15,2013-06-01 19:34:00,
2013-06-01 15:39:00,87.7,66.8,30.00,WSW,248,2.0,-999.0,50,0.00,,,0.00,817,Wunderground v.1.15,2013-06-01 19:39:00,
2013-06-01 15:45:00,88.3,67.3,30.00,West,270,1.0,-999.0,50,0.00,,,0.00,812,Wunderground v.1.15,2013-06-01 19:45:00,
2013-06-01 15:51:00,87.6,68.4,30.00,WSW,257,1.0,-999.0,53,0.00,,,0.00,835,Wunderground v.1.15,2013-06-01 19:51:00,
2013-06-01 15:56:00,87.2,68.0,30.00,SE,138,1.0,-999.0,53,0.00,,,0.00,789,Wunderground v.1.15,2013-06-01 19:56:00,
2013-06-01 16:01:00,87.2,68.0,29.99,SSW,209,1.0,-999.0,53,0.00,,,0.00,780,Wunderground v.1.15,2013-06-01 20:01:00,
2013-06-01 16:06:00,87.9,68.1,29.99,South,190,1.0,-999.0,52,0.00,,,0.00,758,Wunderground v.1.15,2013-06-01 20:06:00,
2013-06-01 16:12:00,87.7,67.9,29.99,WNW,284,2.0,-999.0,52,0.00,,,0.00,737,Wunderground v.1.15,2013-06-01 20:12:00,
2013-06-01 16:18:00,87.9,67.5,29.99,SSE,149,2.0,-999.0,51,0.00,,,0.00,722,Wunderground v.1.15,2013-06-01 20:18:00,
2013-06-01 16:23:00,88.1,68.3,29.99,West,265,1.0,-999.0,52,0.00,,,0.00,719,Wunderground v.1.15,2013-06-01 20:23:00,
2013-06-01 16:28:00,87.5,66.6,29.98,SW,235,3.0,-999.0,50,0.00,,,0.00,703,Wunderground v.1.15,2013-06-01 20:28:00,
2013-06-01 16:33:00,87.5,67.1,29.98,West,263,3.0,-999.0,51,0.00,,,0.00,696,Wunderground v.1.15,2013-06-01 20:33:00,
2013-06-01 16:39:00,87.1,67.3,29.98,West,267,2.0,-999.0,52,0.00,,,0.00,701,Wunderground v.1.15,2013-06-01 20:39:00,
2013-06-01 16:44:00,86.9,66.6,29.98,SSW,194,3.0,-999.0,51,0.00,,,0.00,682,Wunderground v.1.15,2013-06-01 20:44:00,
2013-06-01 16:49:00,86.8,67.6,29.98,South,175,2.0,-999.0,53,0.00,,,0.00,710,Wunderground v.1.15,2013-06-01 20:49:00,
2013-06-01 16:54:00,87.7,68.4,29.98,SW,218,1.0,-999.0,53,0.00,,,0.00,731,Wunderground v.1.15,2013-06-01 20:54:00,
2013-06-01 16:59:00,87.4,68.7,29.99,WNW,297,1.0,-999.0,54,0.00,,,0.00,747,Wunderground v.1.15,2013-06-01 20:59:00,
2013-06-01 17:04:00,87.7,68.4,29.98,WNW,293,1.0,-999.0,53,0.00,,,0.00,719,Wunderground v.1.15,2013-06-01 21:04:00,
2013-06-01 17:10:00,86.8,68.7,29.98,SSE,160,1.0,-999.0,55,0.00,,,0.00,700,Wunderground v.1.15,2013-06-01 21:10:00,
2013-06-01 17:16:00,86.0,68.0,29.98,WNW,300,1.0,-999.0,55,0.00,,,0.00,156,Wunderground v.1.15,2013-06-01 21:16:00,
2013-06-01 17:21:00,85.4,67.9,29.98,SE,136,1.0,-999.0,56,0.00,,,0.00,179,Wunderground v.1.15,2013-06-01 21:21:00,
2013-06-01 17:26:00,85.9,68.4,29.98,NW,314,0.0,-999.0,56,0.00,,,0.00,605,Wunderground v.1.15,2013-06-01 21:26:00,
2013-06-01 17:31:00,86.1,68.6,29.98,SW,229,0.0,-999.0,56,0.00,,,0.00,612,Wunderground v.1.15,2013-06-01 21:31:00,
2013-06-01 17:37:00,86.4,68.3,29.98,West,271,1.0,-999.0,55,0.00,,,0.00,580,Wunderground v.1.15,2013-06-01 21:37:00,
2013-06-01 17:42:00,86.2,67.6,29.98,WSW,248,3.0,-999.0,54,0.00,,,0.00,568,Wunderground v.1.15,2013-06-01 21:42:00,
2013-06-01 17:48:00,85.9,67.9,29.98,West,262,4.0,-999.0,55,0.00,,,0.00,478,Wunderground v.1.15,2013-06-01 21:48:00,
2013-06-01 17:53:00,85.7,67.7,29.98,West,260,2.0,-999.0,55,0.00,,,0.00,490,Wunderground v.1.15,2013-06-01 21:53:00,
2013-06-01 17:58:00,85.6,67.6,29.98,WNW,283,1.0,-999.0,55,0.00,,,0.00,461,Wunderground v.1.15,2013-06-01 21:58:00,
2013-06-01 18:03:00,85.4,67.4,29.98,SW,236,3.0,-999.0,55,0.00,,,0.00,452,Wunderground v.1.15,2013-06-01 22:03:00,
2013-06-01 18:08:00,85.0,66.5,29.98,SSW,209,3.0,-999.0,54,0.00,,,0.00,107,Wunderground v.1.15,2013-06-01 22:08:00,
2013-06-01 18:13:00,84.5,66.6,29.98,WSW,246,2.0,-999.0,55,0.00,,,0.00,79,Wunderground v.1.15,2013-06-01 22:13:00,
2013-06-01 18:19:00,84.2,66.3,29.98,NW,320,2.0,-999.0,55,0.00,,,0.00,69,Wunderground v.1.15,2013-06-01 22:19:00,
2013-06-01 18:24:00,84.1,66.7,29.98,WSW,246,1.0,-999.0,56,0.00,,,0.00,334,Wunderground v.1.15,2013-06-01 22:24:00,
2013-06-01 18:29:00,84.5,67.1,29.97,WSW,254,1.0,-999.0,56,0.00,,,0.00,325,Wunderground v.1.15,2013-06-01 22:29:00,
2013-06-01 18:34:00,84.8,66.8,29.97,West,262,1.0,-999.0,55,0.00,,,0.00,352,Wunderground v.1.15,2013-06-01 22:34:00,
2013-06-01 18:40:00,84.9,67.5,29.98,SW,229,2.0,-999.0,56,0.00,,,0.00,325,Wunderground v.1.15,2013-06-01 22:40:00,
2013-06-01 18:45:00,84.9,67.5,29.98,West,264,2.0,-999.0,56,0.00,,,0.00,197,Wunderground v.1.15,2013-06-01 22:45:00,
2013-06-01 18:50:00,84.9,68.0,29.98,WSW,241,1.0,-999.0,57,0.00,,,0.00,44,Wunderground v.1.15,2013-06-01 22:50:00,
2013-06-01 18:55:00,84.6,67.2,29.98,South,171,1.0,-999.0,56,0.00,,,0.00,220,Wunderground v.1.15,2013-06-01 22:55:00,
2013-06-01 19:00:00,84.6,67.2,29.98,SW,236,1.0,-999.0,56,0.00,,,0.00,216,Wunderground v.1.15,2013-06-01 23:00:00,
2013-06-01 19:06:00,84.4,67.0,29.98,WNW,283,2.0,-999.0,56,0.00,,,0.00,169,Wunderground v.1.15,2013-06-01 23:06:00,
2013-06-01 19:11:00,84.3,66.9,29.98,ESE,114,1.0,-999.0,56,0.00,,,0.00,163,Wunderground v.1.15,2013-06-01 23:11:00,
2013-06-01 19:17:00,84.2,67.3,29.98,West,265,1.0,-999.0,57,0.00,,,0.00,70,Wunderground v.1.15,2013-06-01 23:17:00,
2013-06-01 19:22:00,84.0,66.6,29.98,WSW,241,1.0,-999.0,56,0.00,,,0.00,93,Wunderground v.1.15,2013-06-01 23:22:00,
2013-06-01 19:27:00,83.7,66.3,29.98,WSW,238,1.0,-999.0,56,0.00,,,0.00,58,Wunderground v.1.15,2013-06-01 23:27:00,
2013-06-01 19:32:00,83.4,66.1,29.98,West,266,1.0,-999.0,56,0.00,,,0.00,83,Wunderground v.1.15,2013-06-01 23:32:00,
2013-06-01 19:37:00,83.2,66.9,29.97,NW,306,1.0,-999.0,58,0.00,,,0.00,69,Wunderground v.1.15,2013-06-01 23:37:00,
2013-06-01 19:43:00,82.9,66.1,29.97,WSW,246,2.0,-999.0,57,0.00,,,0.00,33,Wunderground v.1.15,2013-06-01 23:43:00,
2013-06-01 19:48:00,82.7,65.9,29.97,SW,234,1.0,-999.0,57,0.00,,,0.00,32,Wunderground v.1.15,2013-06-01 23:48:00,
2013-06-01 19:53:00,82.4,66.1,29.97,WSW,251,1.0,-999.0,58,0.00,,,0.00,25,Wunderground v.1.15,2013-06-01 23:53:00,
2013-06-01 19:59:00,82.1,65.9,29.97,West,259,0.0,-999.0,58,0.00,,,0.00,35,Wunderground v.1.15,2013-06-01 23:59:00,
2013-06-01 20:04:00,81.9,65.7,29.97,SSW,201,1.0,-999.0,58,0.00,,,0.00,28,Wunderground v.1.15,2013-06-02 00:04:00,
2013-06-01 20:09:00,81.8,66.1,29.97,SSW,204,0.0,-999.0,59,0.00,,,0.00,19,Wunderground v.1.15,2013-06-02 00:09:00,
2013-06-01 20:15:00,81.6,66.4,29.97,SSW,204,0.0,-999.0,60,0.00,,,0.00,18,Wunderground v.1.15,2013-06-02 00:15:00,
2013-06-01 20:20:00,81.3,66.1,29.97,SSW,204,0.0,-999.0,60,0.00,,,0.00,11,Wunderground v.1.15,2013-06-02 00:20:00,
2013-06-01 20:25:00,81.2,66.0,29.97,SSW,204,0.0,-999.0,60,0.00,,,0.00,7,Wunderground v.1.15,2013-06-02 00:25:00,
2013-06-01 20:30:00,80.9,66.2,29.97,SSW,204,0.0,-999.0,61,0.00,,,0.00,0,Wunderground v.1.15,2013-06-02 00:30:00,
2013-06-01 20:35:00,80.6,65.9,29.97,SSW,204,0.0,-999.0,61,0.00,,,0.00,0,Wunderground v.1.15,2013-06-02 00:35:00,
2013-06-01 20:41:00,80.1,65.9,29.96,SSW,202,0.0,-999.0,62,0.00,,,0.00,0,Wunderground v.1.15,2013-06-02 00:41:00,
2013-06-01 20:46:00,79.7,66.0,29.97,SSW,201,0.0,-999.0,63,0.00,,,0.00,0,Wunderground v.1.15,2013-06-02 00:46:00,
2013-06-01 20:51:00,79.4,65.7,29.97,SSW,201,0.0,-999.0,63,0.00,,,0.00,0,Wunderground v.1.15,2013-06-02 00:51:00,
2013-06-01 20:56:00,79.1,65.4,29.97,SSW,201,0.0,-999.0,63,0.00,,,0.00,0,Wunderground v.1.15,2013-06-02 00:56:00,
2013-06-01 21:01:00,78.9,65.7,29.97,SSW,201,0.0,-999.0,64,0.00,,,0.00,0,Wunderground v.1.15,2013-06-02 01:01:00,
2013-06-01 21:06:00,78.7,65.5,29.97,SSW,201,0.0,-999.0,64,0.00,,,0.00,0,Wunderground v.1.15,2013-06-02 01:06:00,
2013-06-01 21:12:00,78.7,65.5,29.97,SSW,201,0.0,-999.0,64,0.00,,,0.00,0,Wunderground v.1.15,2013-06-02 01:12:00,
2013-06-01 21:18:00,78.4,65.7,29.97,SSW,201,0.0,-999.0,65,0.00,,,0.00,0,Wunderground v.1.15,2013-06-02 01:18:00,
2013-06-01 21:23:00,78.1,65.4,29.98,SSW,201,0.0,-999.0,65,0.00,,,0.00,0,Wunderground v.1.15,2013-06-02 01:23:00,
2013-06-01 21:28:00,77.8,65.5,29.98,SSW,201,0.0,-999.0,66,0.00,,,0.00,0,Wunderground v.1.15,2013-06-02 01:28:00,
2013-06-01 21:33:00,77.5,65.2,29.98,SSW,201,0.0,-999.0,66,0.00,,,0.00,0,Wunderground v.1.15,2013-06-02 01:33:00,
2013-06-01 21:39:00,77.2,65.4,29.97,SSW,201,0.0,-999.0,67,0.00,,,0.00,0,Wunderground v.1.15,2013-06-02 01:39:00,
2013-06-01 21:44:00,76.9,65.1,29.97,SSW,201,0.0,-999.0,67,0.00,,,0.00,0,Wunderground v.1.15,2013-06-02 01:44:00,
2013-06-01 21:49:00,76.7,65.3,29.98,SSW,201,0.0,-999.0,68,0.00,,,0.00,0,Wunderground v.1.15,2013-06-02 01:49:00,
2013-06-01 21:54:00,76.5,65.1,29.98,SSW,201,0.0,-999.0,68,0.00,,,0.00,0,Wunderground v.1.15,2013-06-02 01:54:00,
2013-06-01 21:59:00,76.3,65.4,29.98,SSW,201,0.0,-999.0,69,0.00,,,0.00,0,Wunderground v.1.15,2013-06-02 01:59:00,
2013-06-01 22:05:00,76.1,65.6,29.98,SSW,201,0.0,-999.0,70,0.00,,,0.00,0,Wunderground v.1.15,2013-06-02 02:05:00,
2013-06-01 22:10:00,75.9,65.4,29.98,SSW,201,0.0,-999.0,70,0.00,,,0.00,0,Wunderground v.1.15,2013-06-02 02:10:00,
2013-06-01 22:16:00,75.8,65.3,29.98,SSW,201,0.0,-999.0,70,0.00,,,0.00,0,Wunderground v.1.15,2013-06-02 02:16:00,
2013-06-01 22:21:00,75.6,65.5,29.99,SSW,201,0.0,-999.0,71,0.00,,,0.00,0,Wunderground v.1.15,2013-06-02 02:21:00,
2013-06-01 22:26:00,75.6,65.5,29.99,SSW,201,0.0,-999.0,71,0.00,,,0.00,0,Wunderground v.1.15,2013-06-02 02:26:00,
2013-06-01 22:32:00,75.4,65.7,29.99,SSW,201,0.0,-999.0,72,0.00,,,0.00,0,Wunderground v.1.15,2013-06-02 02:32:00,
2013-06-01 22:37:00,75.3,65.6,29.99,SSW,201,0.0,-999.0,72,0.00,,,0.00,0,Wunderground v.1.15,2013-06-02 02:37:00,
2013-06-01 22:43:00,75.2,65.6,29.99,SSW,201,0.0,-999.0,72,0.00,,,0.00,0,Wunderground v.1.15,2013-06-02 02:43:00,
2013-06-01 22:48:00,75.2,65.9,29.99,NNW,329,0.0,-999.0,73,0.00,,,0.00,0,Wunderground v.1.15,2013-06-02 02:48:00,
2013-06-01 22:53:00,75.1,65.9,29.98,WSW,248,0.0,-999.0,73,0.00,,,0.00,0,Wunderground v.1.15,2013-06-02 02:53:00,
2013-06-01 22:58:00,75.1,65.9,29.99,WSW,248,0.0,-999.0,73,0.00,,,0.00,0,Wunderground v.1.15,2013-06-02 02:58:00,
2013-06-01 23:03:00,75.0,65.8,29.99,WSW,248,0.0,-999.0,73,0.00,,,0.00,0,Wunderground v.1.15,2013-06-02 03:03:00,
2013-06-01 23:08:00,75.0,66.1,29.99,WSW,248,0.0,-999.0,74,0.00,,,0.00,0,Wunderground v.1.15,2013-06-02 03:08:00,
2013-06-01 23:14:00,75.0,66.1,29.99,WSW,238,0.0,-999.0,74,0.00,,,0.00,0,Wunderground v.1.15,2013-06-02 03:14:00,
2013-06-01 23:19:00,75.0,66.1,29.99,SE,140,0.0,-999.0,74,0.00,,,0.00,0,Wunderground v.1.15,2013-06-02 03:19:00,
2013-06-01 23:24:00,75.0,66.1,29.99,WSW,248,0.0,-999.0,74,0.00,,,0.00,0,Wunderground v.1.15,2013-06-02 03:24:00,
2013-06-01 23:29:00,75.0,66.1,29.99,WSW,248,0.0,-999.0,74,0.00,,,0.00,0,Wunderground v.1.15,2013-06-02 03:29:00,
2013-06-01 23:35:00,75.0,66.1,29.99,West,269,0.0,-999.0,74,0.00,,,0.00,0,Wunderground v.1.15,2013-06-02 03:35:00,
2013-06-01 23:41:00,75.0,66.1,29.99,WSW,240,0.0,-999.0,74,0.00,,,0.00,0,Wunderground v.1.15,2013-06-02 03:41:00,
2013-06-01 23:46:00,75.1,66.2,29.99,SE,144,1.0,-999.0,74,0.00,,,0.00,0,Wunderground v.1.15,2013-06-02 03:46:00,
2013-06-01 23:52:00,75.2,66.7,29.99,West,262,1.0,-999.0,75,0.00,,,0.00,0,Wunderground v.1.15,2013-06-02 03:52:00,
2013-06-01 23:57:00,75.2,66.7,29.99,WSW,242,1.0,-999.0,75,0.00,,,0.00,0,Wunderground v.1.15,2013-06-02 03:57:00,